Meridianville, AL

4:41 AM CST on February 25, 2017 (GMT -0600)
Huntsville Madison

Weather History for KMDQ - December, 2005

Change the Weather History Date:

Saturday, December 31, 2005

  Actual Average (KHSV) Record (KHSV)
Temperature  
Mean Temperature 42 °F -  
Max Temperature 53 °F 49 °F 76 °F (1951)
Min Temperature 30 °F 33 °F 9 °F (1976)
Degree Days  
Heating Degree Days 24    
Moisture  
Dew Point 33 °F    
Average Humidity 76    
Maximum Humidity 100    
Minimum Humidity 44    
Precipitation  
Precipitation 0.00 in - - ()
Sea Level Pressure  
Sea Level Pressure 29.94 in    
Wind  
Wind Speed 3 mph (West)    
Max Wind Speed 8 mph    
Max Gust Speed -    
Visibility 8 miles    
Events Fog    
Averages and records for this station are not official NWS values.
T = Trace of Precipitation, MM = Missing Value Source: NWS Daily Summary

Daily Weather History Graph

Daily Weather History Graph

Search for Another Location

Airport or City:

Trip Planner

Search our weather history database for the weather conditions in past years. The results will help you decide how hot, cold, wet, or windy it might be!

Date:

Astronomy

Dec. 31, 2005 Rise Set
Actual Time 6:53 AM CST 4:45 PM CST
Civil Twilight 6:25 AM CST 5:13 PM CST
Nautical Twilight 5:54 AM CST 5:44 PM CST
Astronomical Twilight 5:23 AM CST 6:15 PM CST
Moon 7:43 AM CST (12/31) 5:20 PM CST (12/31)
Length of Visible Light 10h 47m
Length of Day
9h 51m
New Moon, 1% of the Moon is Illuminated
Dec 31
New Moon
Jan 6
First Quarter
Jan 14
Full
Jan 22
Last Quarter
Jan 29
New

Hourly Weather History & Observations

Time (CST) Temp. Windchill Dew Point Humidity Pressure Visibility Wind Dir Wind Speed Gust Speed Precip Events Conditions
12:00 AM 50.0 °F - 42.8 °F 76% 29.83 in 10.0 mi West 6.9 mph - N/A   Clear
12:20 AM 50.0 °F - 41.0 °F 71% 29.83 in 10.0 mi West 5.8 mph - N/A   Scattered Clouds
12:40 AM 48.2 °F - 41.0 °F 76% 29.84 in 10.0 mi WNW 5.8 mph - N/A   Scattered Clouds
1:00 AM 46.4 °F 44.3 °F 39.2 °F 76% 29.84 in 10.0 mi WNW 4.6 mph - N/A   Clear
1:20 AM 44.6 °F 40.2 °F 37.4 °F 76% 29.84 in 10.0 mi NW 8.1 mph - N/A   Clear
1:40 AM 44.6 °F 42.2 °F 35.6 °F 71% 29.85 in 10.0 mi NW 4.6 mph - N/A   Clear
2:00 AM 42.8 °F 41.1 °F 35.6 °F 76% 29.85 in 10.0 mi WNW 3.5 mph - N/A   Clear
2:20 AM 42.8 °F - 37.4 °F 81% 29.86 in 10.0 mi Calm Calm - N/A   Scattered Clouds
2:40 AM 41.0 °F - 35.6 °F 81% 29.86 in 10.0 mi Calm Calm - N/A   Scattered Clouds
3:00 AM 39.2 °F - 35.6 °F 87% 29.87 in 10.0 mi Calm Calm - N/A   Clear
4:00 AM 37.4 °F - 35.6 °F 93% 29.88 in 7.0 mi Calm Calm - N/A   Mostly Cloudy
4:20 AM 37.4 °F - 33.8 °F 87% 29.89 in 7.0 mi Calm Calm - N/A   Mostly Cloudy
4:40 AM 37.4 °F - 33.8 °F 87% 29.89 in 5.0 mi Calm Calm - N/A   Scattered Clouds
5:00 AM 33.8 °F - 32.0 °F 93% 29.91 in 0.8 mi Calm Calm - N/A   Mist
5:20 AM 35.6 °F - 33.8 °F 93% 29.92 in 2.0 mi Calm Calm - N/A   Scattered Clouds
5:40 AM 33.8 °F - 32.0 °F 93% 29.92 in 0.5 mi Calm Calm - N/A Fog Fog
6:40 AM 32.0 °F - 32.0 °F 100% 29.93 in 0.8 mi Calm Calm - N/A   Mist
7:00 AM 33.8 °F - 32.0 °F 93% 29.94 in 0.8 mi Calm Calm - N/A   Mist
7:20 AM 32.0 °F - 32.0 °F 100% 29.95 in 0.5 mi Calm Calm - N/A Fog Fog
7:40 AM 33.8 °F - 32.0 °F 93% 29.96 in 4.0 mi Calm Calm - N/A   Clear
8:00 AM 33.8 °F - 32.0 °F 93% 29.98 in 4.0 mi Calm Calm - N/A   Clear
8:20 AM 35.6 °F - 33.8 °F 93% 29.98 in 5.0 mi Calm Calm - N/A   Clear
8:40 AM 37.4 °F - 33.8 °F 87% 29.99 in 5.0 mi Calm Calm - N/A   Clear
9:00 AM 41.0 °F - 37.4 °F 87% 29.99 in 7.0 mi Calm Calm - N/A   Clear
9:20 AM 44.6 °F - 41.0 °F 87% 30.00 in 10.0 mi Calm Calm - N/A   Clear
10:20 AM 50.0 °F - 35.6 °F 58% 30.00 in 10.0 mi West 3.5 mph - N/A   Clear
11:00 AM 50.0 °F - 37.4 °F 62% 29.99 in 10.0 mi SW 3.5 mph - N/A   Clear
11:20 AM 51.8 °F - 35.6 °F 54% 29.98 in 10.0 mi WSW 3.5 mph - N/A   Clear
12:00 PM 51.8 °F - 32.0 °F 47% 29.97 in 10.0 mi WSW 4.6 mph - N/A   Clear
12:20 PM 51.8 °F - 32.0 °F 47% 29.96 in 10.0 mi WNW 4.6 mph - N/A   Clear
12:40 PM 51.8 °F - 32.0 °F 47% 29.95 in 10.0 mi WSW 4.6 mph - N/A   Clear
1:00 PM 51.8 °F - 32.0 °F 47% 29.96 in 10.0 mi WSW 3.5 mph - N/A   Clear
1:20 PM 51.8 °F - 33.8 °F 50% 29.96 in 10.0 mi SW 4.6 mph - N/A   Clear
2:00 PM 51.8 °F - 32.0 °F 47% 29.95 in 10.0 mi Calm Calm - N/A   Clear
2:20 PM 51.8 °F - 32.0 °F 47% 29.95 in 10.0 mi WSW 3.5 mph - N/A   Clear
2:40 PM 51.8 °F - 32.0 °F 47% 29.96 in 10.0 mi SW 4.6 mph - N/A   Clear
3:00 PM 51.8 °F - 32.0 °F 47% 29.97 in 10.0 mi WSW 3.5 mph - N/A   Clear
3:20 PM 53.6 °F - 32.0 °F 44% 29.96 in 10.0 mi SW 3.5 mph - N/A   Clear
4:00 PM 51.8 °F - 32.0 °F 47% 29.98 in 10.0 mi SW 3.5 mph - N/A   Clear
4:20 PM 50.0 °F - 32.0 °F 50% 29.97 in 10.0 mi Calm Calm - N/A   Clear
4:40 PM 48.2 °F - 32.0 °F 54% 29.98 in 10.0 mi Calm Calm - N/A   Clear
5:00 PM 46.4 °F - 32.0 °F 57% 29.98 in 10.0 mi Calm Calm - N/A   Clear
5:20 PM 42.8 °F - 32.0 °F 66% 29.99 in 10.0 mi Calm Calm - N/A   Clear
5:40 PM 42.8 °F - 32.0 °F 66% 29.97 in 10.0 mi Calm Calm - N/A   Clear
6:00 PM 39.2 °F - 32.0 °F 75% 29.98 in 10.0 mi Calm Calm - N/A   Clear
6:20 PM 37.4 °F - 32.0 °F 81% 29.98 in 10.0 mi Calm Calm - N/A   Clear
7:00 PM 37.4 °F - 32.0 °F 81% 29.96 in 10.0 mi Calm Calm - N/A   Clear
7:20 PM 35.6 °F - 30.2 °F 81% 29.97 in 10.0 mi Calm Calm - N/A   Clear
7:40 PM 35.6 °F - 32.0 °F 87% 29.97 in 10.0 mi Calm Calm - N/A   Clear
8:00 PM 35.6 °F - 32.0 °F 87% 29.97 in 10.0 mi Calm Calm - N/A   Clear
8:20 PM 33.8 °F - 32.0 °F 93% 29.98 in 10.0 mi Calm Calm - N/A   Clear
8:40 PM 35.6 °F - 32.0 °F 87% 29.98 in 10.0 mi Calm Calm - N/A   Clear
9:00 PM 33.8 °F - 32.0 °F 93% 29.97 in 10.0 mi Calm Calm - N/A   Clear
9:20 PM 33.8 °F - 30.2 °F 87% 29.97 in 10.0 mi Calm Calm - N/A   Clear
9:40 PM 32.0 °F - 30.2 °F 93% 29.98 in 10.0 mi Calm Calm - N/A   Clear
10:00 PM 32.0 °F - 30.2 °F 93% 29.99 in 10.0 mi Calm Calm - N/A   Clear
10:20 PM 33.8 °F - 30.2 °F 87% 29.99 in 10.0 mi Calm Calm - N/A   Clear
11:00 PM 32.0 °F - 30.2 °F 93% 29.99 in 5.0 mi Calm Calm - N/A   Clear
11:20 PM 30.2 °F - 28.4 °F 93% 29.99 in 7.0 mi Calm Calm - N/A   Clear
11:40 PM 32.0 °F - 28.4 °F 87% 29.98 in 10.0 mi Calm Calm - N/A   Clear